sat.trackr.live / text

‹ back to catalog

STARLINK-31815

NORAD 59801 · 2024-093V

PAYLOAD ACTIVE UNKNOWN

§ Identity

Operator
Country
US
Launch date
2024-05-18
Launch site
AFETR
Launch vehicle
Mass (kg)
RCS (m²)

Purposes: comms

External: N2YO · Heavens-Above · Gunter

§ Orbital elements

Epoch: 2026-05-24T23:52:22.410048Z

Period
94.27 min
Inclination
43.0013°
Eccentricity
0.0001664
Mean motion
15.27567869 rev/d
Perigee alt
481.9 km
Apogee alt
484.2 km
Semi-major
6,861.2 km
B*
-3.2501e-6
RAAN
138.1032°
Arg perigee
292.2605°
Mean anomaly
67.8070°
Rev number
11,436

§ Raw data

STARLINK-318151 59801U 24093V   26144.99470382 -.00000352  00000+0 -32501-5 0  99972 59801  43.0013 138.1032 0001664 292.2605  67.8070 15.27567869114366

JSON: /api/v1/satellites/59801 · /tle

For live sub-satellite position, see the globe view (requires WebGL).

§ Visibility from observer

Set your observer location to see the next 7 days of passes ≥ 10°. The values pass through the URL so the page stays shareable.

No JS? Fill the form by hand. The geolocation button needs JavaScript.